Simultaneous Nadir Overpasses (SNOs) Predictions

Prediction of SNOs between GOES-16 and AQUA Satellite Orbit:

Table of predicted SNOs for the next 14.0 days since TLE Epoch: 9/2/2023
Index Date Time (GOES-16) GOES-16 Lat,Lon AQUA Lat,Lon Distance(km) Time Diff (sec)
1 09/02/2023 07:00:07 0.06, -75.20 0.34, -76.36 132.38 80
2 09/04/2023 06:43:00 0.06, -75.22 -0.44, -72.84 270.15 80
3 09/04/2023 19:03:48 -0.06, -75.22 -0.61, -77.88 302.29 80
4 09/06/2023 18:52:01 -0.06, -75.24 0.15, -74.35 100.94 80
5 09/07/2023 07:12:40 0.05, -75.24 0.93, -79.36 468.26 80
6 09/09/2023 06:58:11 0.05, -75.26 0.19, -75.82 64.42 80
7 09/11/2023 06:41:02 0.04, -75.29 -0.58, -72.29 340.47 80
8 09/11/2023 19:01:51 -0.03, -75.30 -0.44, -77.34 231.45 80
9 09/13/2023 18:50:01 -0.02, -75.34 0.32, -73.80 174.82 80
10 09/14/2023 07:10:41 0.02, -75.35 0.74, -78.81 393.43 80
